Wetbulb
49.34 47.96 46.61 46.05 47.61 49.90 49.49 50.56 49.58 48.85 47.86 46.95 46.23 46.00 46.16 45.82 45.62 43.42 43.43 44.29 43.75 42.92 43.07 43.15 43.80 43.95 43.89 43.75 42.96 42.55 40.73 40.02 36.86 39.28 39.82 40.99 40.64 40.66 42.83 43.38 45.57 44.30 43.69
47.05 46.49 45.87 45.30 44.53 44.83 45.50 46.33 47.57 45.84 45.41 45.17 45.08 45.38 46.17 45.83 43.95 43.63 43.85 44.13 43.57 43.01 43.21 43.88 44.34 45.77 42.64 42.19 41.98 41.50 40.07 40.75 38.41 37.29 39.33 40.57 40.19 40.29 40.78 40.91 44.09 45.09 42.68
46.45 45.83 45.46 46.42 46.26 45.60 45.97 44.57 44.82 44.52 44.43 45.00 44.73 44.60 45.06 45.65 45.21 45.12 46.16 45.75 45.68 44.96 44.38 43.65 44.45 44.41 43.36 41.99 41.42 41.15 40.42 42.14 38.28 37.32 37.14 39.67 40.60 41.90 41.45 40.45 41.59 40.80 43.88
48.59 47.59 46.13 45.79 46.58 46.28 46.47 45.25 43.63 44.88 44.51 43.88 44.89 45.61 45.41 45.49 45.93 45.70 46.24 45.71 45.53 46.14 45.75 45.00 45.16 45.03 43.92 42.57 41.49 40.92 39.90 38.20 37.71 35.81 35.80 36.59 37.44 39.84 39.48 39.69 39.82 39.21 38.88
47.64 47.54 47.67 48.38 48.22 46.69 45.77 46.64 46.95 45.37 45.48 45.73 45.58 45.56 45.40 45.86 46.35 45.39 44.66 43.94 43.72 45.10 46.59 47.76 47.32 48.28 49.74 46.70 42.29 40.01 38.91 38.12 37.48 36.34 35.80 36.78 37.14 37.84 37.93 39.32 38.08 38.00 38.25
47.40 47.49 47.98 48.44 46.11 45.14 44.13 44.65 45.95 46.07 45.51 44.83 44.91 45.61 45.25 46.66 47.16 47.54 44.88 42.02 42.80 43.54 42.95 44.98 46.25 49.62 49.73 51.56 50.78 49.81 42.80 38.37 37.26 35.36 33.98 33.91 35.22 36.92 36.41 37.51 34.73 34.75 32.94
48.21 48.48 49.30 47.62 47.34 45.93 46.04 44.28 43.69 43.12 43.16 43.00 43.58 44.36 44.51 44.53 46.58 46.15 46.85 41.77 41.33 42.18 42.83 43.97 45.34 48.14 49.19 45.16 48.04 50.09 49.00 48.34 46.41 39.31 36.77 35.90 36.33 37.58 36.12 33.50 35.06 34.86 34.35
47.24 48.46 49.78 49.43 48.12 47.49 46.41 45.21 44.03 43.70 43.43 44.09 43.87 44.31 44.54 46.17 47.33 45.75 45.79 42.90 42.67 43.68 44.00 44.52 44.39 45.31 46.49 47.55 45.85 43.41 42.19 40.90 40.56 41.08 39.16 38.61 38.13 37.89 36.19 36.86 35.29 35.38 37.05
47.86 46.56 48.45 48.53 47.54 46.03 44.69 44.84 43.66 43.84 44.95 45.18 45.62 45.16 45.21 46.20 47.42 46.13 45.24 43.37 44.07 43.79 45.33 45.03 45.46 45.88 46.95 43.27 39.68 37.78 37.16 37.42 43.33 45.57 45.41 44.48 43.58 42.91 42.68 40.09 37.22 35.44 34.47
48.18 48.74 46.89 47.56 46.42 45.42 45.48 44.80 45.44 46.00 45.97 46.60 45.99 45.95 46.99 45.53 47.06 46.68 45.48 45.74 44.64 44.21 43.87 44.82 47.13 45.38 41.58 40.63 35.88 34.58 33.79 35.09 35.47 35.97 36.68 38.45 40.43 39.69 43.25 40.92 39.42 35.06 34.44
48.79 49.57 48.54 47.84 47.78 46.45 47.70 46.43 45.67 45.76 46.20 45.52 46.16 45.90 46.73 46.92 46.85 46.39 44.47 43.58 43.06 44.20 44.23 44.38 43.56 41.80 40.66 39.51 39.64 34.07 35.11 36.64 37.13 35.52 35.60 37.02 37.72 38.32 39.28 37.79 37.75 36.25 35.11
49.18 48.96 48.54 46.43 47.80 48.23 46.62 46.15 46.80 45.97 45.45 45.47 45.27 45.58 46.85 48.54 49.80 47.98 46.21 44.85 45.34 43.47 42.36 43.55 42.47 40.95 40.19 40.16 39.64 39.22 39.50 40.42 37.22 34.45 35.10 35.66 36.66 36.64 35.99 36.25 36.53 37.54 38.68
47.20 44.82 46.29 49.05 49.46 49.17 46.41 45.81 45.88 46.27 45.47 45.11 44.98 44.46 44.40 45.59 44.07 44.86 44.23 43.93 44.28 44.04 43.13 42.87 41.98 40.17 39.54 38.78 40.04 40.50 41.06 37.47 35.06 33.86 35.40 35.65 33.96 35.25 34.75 34.83 35.62 36.02 36.84
45.06 45.58 46.80 46.35 46.33 47.08 48.02 47.64 46.89 46.01 45.09 45.11 44.60 42.88 42.26 41.03 41.16 42.05 42.87 41.98 41.20 42.95 40.75 34.36 38.29 40.26 40.52 40.53 40.30 39.70 37.47 36.21 35.41 33.61 32.93 33.60 33.66 33.06 32.37 34.58 34.42 35.85 35.07
45.05 45.37 45.41 46.75 46.82 47.03 47.37 48.00 47.36 46.77 46.62 44.36 43.67 43.26 40.57 39.93 41.65 41.66 37.83 36.34 33.71 34.95 33.70 31.71 31.78 32.03 33.26 34.95 35.99 35.69 34.97 34.60 33.48 32.86 32.59 31.96 31.84 31.40 32.82 34.56 34.53 34.40 33.13
45.43 45.99 46.77 46.52 46.11 48.37 45.98 45.53 41.47 42.56 42.81 42.40 39.98 42.27 41.75 41.69 39.27 38.17 37.93 37.30 36.63 36.33 30.16 28.67 29.87 31.22 33.08 35.39 33.72 33.44 33.49 35.48 33.09 33.18 32.45 31.49 30.61 30.65 32.29 32.38 33.76 32.14 32.59
48.73 48.97 46.85 46.84 46.30 46.66 45.95 45.44 44.64 42.14 41.53 41.52 40.85 40.77 39.64 39.41 37.97 37.85 37.75 36.95 35.76 34.02 28.63 28.90 30.56 32.34 34.80 35.80 34.05 33.22 32.43 33.09 33.24 32.17 31.57 31.09 31.47 31.65 31.05 31.39 32.35 32.75 32.35
49.15 47.81 46.83 46.45 46.01 44.91 46.34 46.25 46.08 43.80 42.14 41.65 40.05 39.87 39.04 38.83 37.61 36.79 36.54 35.04 31.46 33.33 30.60 31.89 33.02 34.40 35.95 34.75 34.19 33.37 33.62 33.09 31.54 31.31 31.70 31.74 31.25 31.01 30.31 30.87 31.90 31.73 31.34
48.89 46.76 46.92 47.90 48.53 44.28 44.50 43.64 43.97 42.39 42.64 42.60 41.47 38.17 39.04 38.43 38.03 36.74 35.88 31.52 31.03 32.52 34.18 34.30 35.15 35.51 34.94 34.60 34.36 34.42 33.81 32.33 31.48 31.14 30.97 30.57 30.48 29.71 28.80 30.93 31.65 31.05 30.52
47.24 46.61 45.58 44.91 42.60 40.76 41.40 43.40 43.33 42.23 41.59 41.73 43.01 42.14 39.74 36.99 37.31 37.41 35.29 34.02 33.09 33.93 35.45 35.49 36.95 35.25 35.17 34.57 34.31 33.66 32.43 31.76 31.08 30.68 29.98 30.07 29.76 29.42 28.98 30.54 30.61 29.77 29.73
44.85 44.83 40.17 43.13 42.67 41.97 40.73 40.65 41.32 41.37 41.28 41.28 41.76 42.18 38.13 39.79 39.26 38.09 36.76 36.26 35.85 36.16 35.89 36.25 35.62 35.30 34.81 34.06 33.61 33.42 32.74 32.23 30.98 30.15 29.86 29.82 28.77 27.90 29.12 29.95 30.31 30.20 30.17
45.48 44.48 43.83 43.45 44.16 43.18 42.04 41.98 42.06 42.32 42.30 42.06 40.33 38.66 35.93 40.18 38.81 38.24 38.47 38.94 39.24 39.12 38.08 37.66 35.87 35.54 34.71 34.34 34.66 34.11 33.23 30.71 30.37 29.97 29.38 28.77 28.33 27.95 29.12 29.40 29.44 29.60 29.88
45.09 44.78 44.03 43.02 43.17 41.22 42.63 41.67 41.94 42.22 41.92 41.16 40.73 40.03 36.92 39.32 39.14 39.28 39.48 39.60 39.37 39.83 38.75 38.30 37.23 35.93 35.72 35.80 36.32 35.40 31.50 30.41 30.45 30.18 28.54 27.85 27.87 27.70 27.85 28.61 28.97 29.21 29.94
44.20 43.75 42.22 41.02 41.29 41.49 41.32 41.09 41.82 39.23 41.10 41.86 41.03 41.26 39.39 38.38 38.80 40.20 40.96 40.49 40.14 39.60 39.75 38.71 37.56 37.08 36.92 36.25 37.85 34.75 32.10 30.79 30.94 29.80 29.23 27.52 27.06 27.41 27.49 28.70 28.96 29.59 29.79
44.76 44.45 43.00 41.76 41.67 41.39 41.76 41.74 41.64 41.64 42.02 42.66 42.92 43.14 44.04 43.71 42.99 43.06 42.53 41.26 40.23 39.96 39.60 39.27 38.71 38.07 37.66 38.06 34.69 31.36 29.25 29.63 30.53 29.45 28.23 27.73 27.09 27.52 27.85 28.85 29.47 29.66 29.95
45.65 45.74 45.22 46.40 43.48 43.16 42.17 40.97 39.41 38.42 37.73 38.72 38.77 39.42 39.67 40.68 42.64 43.70 42.37 42.11 41.60 41.08 40.85 39.56 39.19 39.53 37.59 34.95 34.18 31.40 29.74 29.98 29.78 29.62 27.44 26.83 27.07 27.33 28.43 28.99 29.37 29.64 30.98
MSLP
1018.84 1019.43 1019.58 1020.01 1020.61 1020.95 1021.16 1021.63 1021.94 1022.38 1022.63 1023.13 1023.44 1023.86 1024.21 1024.35 1024.43 1024.69 1024.84 1024.98 1025.05 1025.18 1025.22 1025.33 1025.52 1025.57 1025.71 1025.86 1025.83 1026.00 1026.48 1026.68 1026.79 1026.33 1025.99 1025.50 1024.97 1024.69 1024.12 1023.54 1022.98 1022.61 1022.57
1019.90 1019.55 1020.52 1020.76 1021.04 1021.61 1022.01 1022.12 1022.12 1022.56 1022.76 1023.10 1023.42 1023.97 1024.31 1024.53 1024.61 1024.87 1024.97 1025.06 1025.16 1025.30 1025.37 1025.37 1025.51 1025.50 1025.63 1025.93 1026.13 1026.48 1026.38 1026.68 1026.91 1026.39 1025.87 1025.37 1024.91 1024.33 1023.90 1023.45 1023.06 1022.48 1022.23
1019.72 1020.51 1021.28 1021.48 1021.52 1022.04 1022.59 1022.72 1022.87 1022.86 1023.24 1023.32 1023.63 1023.97 1024.42 1024.70 1024.74 1024.84 1024.99 1025.12 1025.19 1025.32 1025.52 1025.57 1025.42 1025.40 1025.63 1025.87 1025.99 1026.05 1026.12 1026.50 1026.66 1026.79 1025.92 1025.25 1024.67 1023.87 1023.53 1023.42 1023.07 1022.76 1022.43
1020.04 1021.05 1021.74 1021.97 1022.01 1022.51 1022.89 1023.28 1023.33 1023.15 1023.59 1023.77 1024.03 1024.03 1024.06 1024.48 1024.66 1024.69 1024.95 1025.22 1025.26 1025.32 1025.30 1025.33 1025.26 1025.22 1025.17 1025.20 1025.54 1025.82 1025.98 1026.16 1026.28 1026.55 1026.35 1025.78 1025.13 1024.35 1023.97 1023.50 1022.90 1022.87 1022.48
1020.80 1021.38 1021.77 1022.22 1022.41 1022.92 1023.40 1023.65 1023.59 1023.54 1023.97 1023.96 1024.19 1024.27 1024.40 1024.55 1024.51 1024.56 1024.74 1025.03 1025.21 1025.29 1025.30 1025.18 1024.90 1024.74 1024.42 1024.63 1024.90 1025.12 1025.59 1025.89 1026.04 1025.99 1025.76 1025.49 1024.91 1024.39 1024.03 1023.36 1022.96 1022.49 1022.07
1021.39 1021.48 1021.91 1022.13 1022.89 1023.52 1023.72 1023.82 1023.71 1023.74 1023.80 1024.13 1024.44 1024.39 1024.20 1024.27 1024.28 1024.54 1024.58 1024.99 1025.02 1025.12 1025.09 1024.98 1024.71 1024.37 1024.24 1023.96 1023.85 1023.97 1024.56 1025.09 1025.17 1025.50 1025.27 1025.06 1024.45 1024.03 1023.68 1023.32 1022.81 1022.08 1020.82
1021.23 1021.72 1021.60 1022.29 1023.20 1023.29 1023.94 1024.00 1023.94 1023.80 1023.83 1024.11 1024.37 1024.35 1024.41 1024.23 1024.24 1024.39 1024.50 1024.81 1024.84 1024.77 1024.69 1024.48 1024.27 1023.86 1023.83 1023.65 1023.52 1023.47 1023.78 1023.87 1024.04 1024.43 1024.61 1024.38 1023.76 1023.51 1023.12 1022.78 1022.39 1021.77 1021.08
1021.21 1021.18 1021.77 1021.96 1022.17 1022.98 1023.59 1023.74 1023.84 1023.84 1023.72 1023.97 1024.11 1024.17 1024.21 1024.01 1023.93 1023.95 1024.08 1024.31 1024.62 1024.30 1024.03 1023.93 1023.92 1023.66 1023.59 1023.34 1023.27 1023.43 1023.61 1023.91 1023.92 1023.59 1023.77 1023.44 1022.93 1022.67 1022.45 1021.72 1021.60 1020.89 1020.28
1020.57 1021.01 1021.58 1021.28 1021.48 1022.36 1022.90 1023.16 1023.70 1023.73 1023.68 1023.52 1023.59 1023.68 1023.79 1023.45 1023.23 1023.46 1023.51 1023.74 1023.84 1023.65 1023.54 1023.56 1023.51 1023.34 1022.96 1022.96 1023.03 1023.34 1023.54 1023.58 1022.89 1022.72 1022.55 1022.29 1021.89 1021.39 1021.05 1020.90 1020.71 1020.38 1019.63
1020.41 1020.46 1020.60 1020.91 1021.18 1021.79 1022.06 1022.30 1022.76 1023.33 1023.23 1023.11 1022.90 1022.94 1023.07 1022.99 1022.71 1022.71 1022.97 1023.28 1023.28 1023.21 1023.17 1023.05 1022.63 1022.74 1022.92 1022.86 1022.94 1023.15 1023.44 1022.99 1022.49 1022.41 1022.09 1021.55 1021.15 1020.84 1020.27 1020.08 1019.78 1019.84 1019.33
1019.30 1019.62 1019.97 1020.56 1020.80 1021.23 1021.44 1021.75 1022.13 1022.58 1022.49 1022.77 1022.62 1022.38 1022.54 1022.41 1022.28 1022.12 1022.20 1022.62 1022.82 1023.05 1022.99 1022.85 1022.65 1022.82 1022.83 1022.87 1022.79 1022.85 1022.75 1022.13 1021.95 1021.71 1021.42 1021.19 1020.84 1020.25 1019.59 1019.38 1019.13 1018.96 1018.38
1018.96 1019.42 1019.97 1020.39 1020.51 1020.40 1020.88 1021.31 1021.72 1021.98 1022.27 1022.36 1022.35 1022.26 1021.99 1021.79 1021.47 1021.75 1021.95 1022.39 1022.55 1022.83 1023.03 1022.96 1022.59 1022.86 1022.64 1022.45 1022.30 1022.08 1021.72 1021.55 1021.37 1021.13 1021.10 1020.97 1020.38 1019.74 1019.34 1018.84 1018.17 1017.60 1017.03
1019.24 1019.70 1020.12 1020.14 1020.08 1020.24 1020.93 1021.37 1021.76 1021.75 1021.88 1021.87 1021.98 1022.15 1022.17 1021.99 1021.97 1022.01 1022.13 1022.31 1022.37 1022.67 1022.48 1022.44 1022.34 1022.11 1022.02 1021.85 1021.45 1021.16 1020.91 1020.89 1020.87 1021.01 1020.75 1020.36 1019.78 1019.10 1018.56 1018.18 1017.47 1016.69 1015.92
1019.27 1019.60 1019.92 1020.05 1019.93 1020.39 1020.59 1021.03 1021.36 1021.32 1021.44 1021.51 1021.66 1021.86 1022.00 1022.14 1022.05 1022.04 1022.08 1022.19 1022.31 1022.24 1022.26 1022.09 1021.99 1021.88 1021.69 1021.43 1021.09 1020.66 1020.40 1020.21 1020.29 1020.32 1020.01 1019.44 1018.90 1018.65 1018.37 1017.68 1016.82 1016.01 1015.32
1018.88 1019.13 1019.61 1019.98 1020.05 1020.22 1020.17 1020.44 1020.53 1020.47 1020.64 1021.03 1021.23 1021.46 1021.76 1021.85 1021.75 1021.72 1021.85 1022.05 1022.14 1022.20 1022.22 1022.16 1021.98 1021.69 1021.51 1021.12 1020.69 1020.23 1019.84 1019.64 1019.73 1019.51 1019.33 1019.11 1018.80 1018.36 1017.74 1016.98 1016.41 1015.55 1015.13
1018.85 1019.16 1019.46 1019.66 1019.56 1019.61 1019.78 1020.04 1020.20 1020.13 1020.32 1020.51 1020.68 1020.93 1021.12 1021.12 1021.38 1021.67 1021.72 1021.80 1021.90 1021.86 1022.01 1022.18 1021.88 1021.59 1021.37 1020.91 1020.52 1019.92 1019.55 1019.33 1019.17 1018.92 1018.81 1018.70 1018.35 1017.84 1017.18 1016.59 1015.92 1015.48 1014.88
1018.29 1018.29 1018.66 1018.87 1018.90 1019.04 1019.25 1019.55 1019.99 1020.21 1020.16 1020.21 1020.34 1020.50 1020.68 1020.92 1021.29 1021.48 1021.55 1021.58 1021.81 1021.95 1022.02 1021.72 1021.49 1021.07 1020.72 1020.36 1019.87 1019.54 1019.31 1018.85 1018.46 1018.42 1018.44 1018.18 1017.79 1017.29 1016.86 1016.39 1015.82 1015.20 1014.44
1017.26 1017.51 1018.05 1018.22 1018.42 1018.46 1018.54 1018.62 1018.98 1019.47 1019.79 1019.70 1019.73 1019.96 1020.36 1020.59 1020.78 1021.06 1021.30 1021.43 1021.46 1021.26 1021.30 1020.99 1020.73 1020.34 1020.00 1019.66 1019.21 1019.05 1018.62 1018.29 1018.26 1018.21 1018.02 1017.66 1017.28 1017.17 1016.88 1016.34 1015.61 1015.11 1014.33
1016.89 1017.23 1017.45 1017.56 1017.57 1017.76 1017.84 1017.93 1018.07 1018.21 1018.46 1018.58 1018.91 1019.49 1019.45 1019.87 1020.21 1020.48 1020.65 1020.84 1020.76 1020.52 1020.22 1020.14 1019.76 1019.48 1018.96 1018.60 1018.51 1018.21 1018.03 1018.06 1017.90 1017.84 1017.55 1017.43 1017.35 1017.10 1016.74 1016.18 1015.48 1014.95 1014.25
1016.35 1016.40 1016.68 1017.03 1017.09 1017.17 1017.25 1017.35 1017.32 1017.46 1017.52 1017.62 1017.98 1018.09 1018.61 1019.56 1019.79 1019.70 1019.61 1019.53 1019.60 1019.38 1019.00 1019.02 1018.68 1018.48 1018.16 1018.10 1018.00 1017.86 1017.81 1017.71 1017.59 1017.38 1017.48 1017.26 1017.07 1016.87 1016.62 1015.91 1015.37 1014.69 1013.92
1015.95 1016.26 1016.42 1016.60 1016.60 1016.67 1016.59 1016.59 1016.68 1016.68 1016.75 1016.73 1016.56 1016.36 1016.98 1017.68 1017.94 1018.05 1018.13 1018.14 1018.08 1017.95 1018.10 1018.12 1017.76 1017.46 1017.48 1017.50 1017.50 1017.43 1017.28 1017.19 1017.12 1017.27 1017.18 1017.03 1016.91 1016.77 1016.27 1015.84 1015.30 1014.56 1013.80
1015.53 1015.99 1016.22 1016.19 1016.11 1016.06 1015.94 1015.90 1015.90 1015.79 1015.76 1015.72 1015.58 1015.49 1015.66 1016.05 1016.35 1016.40 1016.37 1016.12 1016.20 1016.38 1016.51 1016.65 1016.86 1016.86 1016.90 1016.92 1016.89 1016.86 1016.74 1016.89 1016.95 1016.92 1016.90 1016.80 1016.62 1016.41 1016.11 1015.71 1015.04 1014.39 1013.69
1014.92 1015.43 1015.56 1015.61 1015.61 1015.56 1015.43 1015.28 1015.17 1015.02 1014.97 1014.96 1014.88 1014.98 1015.46 1015.37 1015.48 1015.36 1015.11 1014.75 1014.85 1014.91 1015.07 1015.31 1015.85 1016.10 1016.07 1016.14 1016.05 1016.00 1016.23 1016.54 1016.54 1016.56 1016.63 1016.59 1016.45 1016.18 1015.86 1015.48 1014.84 1014.21 1013.54
1014.33 1014.73 1014.98 1015.07 1015.06 1015.01 1014.97 1014.84 1014.72 1014.61 1014.49 1014.40 1014.50 1014.65 1014.77 1014.74 1014.75 1014.57 1014.31 1014.25 1014.18 1014.02 1014.08 1014.51 1015.09 1015.48 1015.48 1015.49 1015.35 1015.32 1015.73 1016.01 1016.11 1016.26 1016.26 1016.32 1016.14 1015.80 1015.47 1015.07 1014.64 1013.98 1013.44
1013.89 1014.33 1014.48 1014.51 1014.47 1014.37 1014.29 1014.51 1014.87 1014.97 1014.99 1015.07 1015.05 1014.91 1014.78 1014.74 1014.77 1014.97 1014.85 1014.51 1014.28 1014.14 1014.16 1014.08 1014.31 1014.89 1014.94 1014.81 1014.78 1015.26 1015.54 1015.68 1015.80 1015.93 1016.03 1016.01 1015.79 1015.48 1015.18 1014.68 1014.25 1013.76 1013.24
1013.16 1013.54 1013.79 1013.85 1013.91 1014.40 1014.80 1015.12 1015.43 1015.56 1015.63 1015.53 1015.37 1015.04 1015.06 1014.99 1014.44 1013.98 1014.18 1014.72 1014.61 1014.58 1014.49 1014.41 1014.22 1014.30 1014.32 1014.40 1014.60 1014.95 1015.33 1015.50 1015.66 1015.71 1015.83 1015.83 1015.52 1015.04 1014.73 1014.35 1014.00 1013.55 1013.01
Wind_Speed
8 10 12 11 10 8 8 8 8 7 7 7 6 5 5 5 5 5 5 6 6 5 4 6 6 5 5 4 4 4 4 3 2 3 2 4 4 7 6 5 6 5 4
12 13 10 10 8 8 7 7 7 7 6 6 6 6 6 5 4 5 5 5 4 4 4 6 4 3 5 5 4 4 4 3 3 8 4 7 7 6 6 6 4 8 5
13 12 8 9 9 8 7 7 7 7 6 7 7 7 6 4 4 4 5 4 4 4 5 4 3 3 2 2 2 2 2 1 2 3 8 7 8 9 10 5 10 6 5
12 11 8 7 7 6 6 5 5 6 6 6 4 5 5 3 2 1 1 2 4 3 2 3 4 4 4 4 2 4 2 2 2 2 4 5 5 7 5 10 10 3 5
10 8 7 7 7 6 5 4 5 5 3 3 2 2 4 4 4 5 5 5 3 4 5 5 5 6 10 8 4 5 4 3 3 4 4 4 6 7 9 7 8 7 8
5 6 6 6 5 4 4 4 4 3 2 2 3 3 2 0 7 3 5 5 5 4 5 6 6 9 8 12 14 15 9 6 5 3 4 5 6 8 3 8 5 9 13
4 4 6 6 6 6 5 4 5 6 5 5 5 4 6 5 9 9 9 5 6 6 6 6 6 6 8 6 9 13 15 17 14 6 5 6 9 10 5 5 10 11 10
6 6 7 9 7 6 7 7 7 6 7 6 6 6 6 6 12 13 14 7 6 7 7 7 7 8 9 10 7 5 5 4 5 5 7 10 9 8 7 10 10 9 8
5 6 8 9 8 7 7 8 6 4 5 6 6 7 7 8 12 12 12 7 9 8 7 7 8 9 12 7 5 2 4 6 8 14 14 15 14 17 18 11 10 9 11
10 10 7 8 8 7 8 8 6 5 7 5 6 7 10 8 11 13 10 7 9 7 6 7 7 6 9 7 3 3 6 8 7 7 7 8 13 13 21 15 11 8 9
5 6 5 6 7 7 6 5 5 6 6 6 6 6 7 8 8 9 9 5 3 2 3 4 1 6 8 7 9 6 9 8 8 6 6 8 9 10 11 6 6 7 9
5 3 6 5 4 3 5 2 3 4 4 6 5 5 5 5 7 5 3 7 2 2 4 4 3 8 9 12 9 13 17 14 7 4 5 8 9 8 5 6 8 9 9
4 4 3 4 3 3 4 4 3 4 5 5 4 4 1 3 3 5 4 3 5 4 4 5 8 7 9 8 14 15 13 6 5 4 7 8 5 5 6 6 7 10 10
3 2 2 3 3 2 2 4 4 4 4 4 4 3 2 1 2 2 3 3 5 4 1 4 6 9 12 12 10 9 5 5 5 5 4 4 4 4 4 7 9 9 8
5 5 5 3 5 5 5 5 5 5 5 4 4 4 4 4 5 6 6 3 2 2 2 2 3 3 4 5 5 5 4 3 3 3 3 4 3 3 7 8 7 9 6
5 4 5 5 4 4 3 3 2 5 6 6 8 6 3 6 9 8 8 7 7 3 1 2 4 5 5 6 6 4 3 4 4 4 4 3 4 5 7 5 6 4 8
7 7 4 4 4 4 5 5 4 3 5 6 8 9 8 7 9 9 8 6 6 2 3 4 5 6 7 7 5 3 3 4 4 3 2 5 5 5 5 5 9 6 10
9 10 5 5 5 4 5 5 5 5 6 5 11 10 9 10 10 9 6 3 4 5 5 6 7 7 6 5 3 3 4 5 2 2 4 5 5 3 4 9 8 9 12
6 5 5 6 4 4 3 4 5 5 5 5 2 5 10 13 10 7 7 5 5 6 5 5 6 7 5 3 4 5 4 3 2 3 4 4 3 3 5 9 7 12 15
5 8 6 5 4 3 4 5 5 5 5 5 6 7 5 5 6 7 8 7 7 9 8 5 6 4 1 3 4 3 2 2 3 4 2 2 3 3 6 9 8 12 12
2 2 6 4 4 5 5 4 4 5 5 5 7 9 13 12 11 10 9 9 9 8 6 5 4 1 1 2 3 3 3 4 3 2 2 2 3 4 6 5 9 11 11
4 4 5 5 5 5 6 5 5 5 5 5 5 5 16 11 10 10 10 8 7 8 6 5 3 2 2 3 4 4 4 1 2 1 1 3 4 4 4 7 9 10 10
5 5 5 4 4 6 5 6 6 6 6 6 6 5 7 9 8 10 8 7 6 6 5 5 4 2 3 4 4 4 2 4 3 2 1 3 4 4 4 7 9 9 10
5 5 4 4 4 5 5 5 6 6 6 5 4 3 2 6 6 7 6 4 5 5 6 5 4 5 4 5 5 3 5 3 3 2 0 2 4 5 5 7 8 11 10
6 5 6 6 6 6 5 2 4 4 4 4 3 3 4 2 4 0 7 4 3 3 5 4 4 6 8 9 4 8 7 5 5 3 0 4 6 7 5 7 8 9 11
6 7 6 7 6 3 4 5 5 5 5 4 3 4 5 7 7 7 4 4 3 3 5 3 3 7 5 1 8 8 7 6 4 1 2 4 5 5 5 7 10 8 10
Wind_Direction
90 85 82 72 59 66 80 103 110 114 114 110 111 98 86 69 64 83 97 91 81 70 61 75 65 44 35 35 45 36 24 24 329 312 278 289 308 306 297 297 304 318 333
100 91 85 86 82 74 74 72 101 87 86 99 108 106 97 82 72 82 87 109 109 108 72 63 61 59 61 51 42 24 27 13 23 325 317 331 324 311 299 326 353 330 336
101 97 93 93 88 80 67 68 72 81 78 75 85 88 78 76 62 62 70 57 61 95 90 71 29 25 84 104 77 20 15 2 354 321 318 326 322 328 327 328 328 315 328
104 105 102 93 95 93 90 83 80 75 87 86 77 93 96 72 83 73 247 46 42 24 50 198 243 250 203 172 208 242 272 306 295 258 270 290 300 305 300 314 307 300 303
101 112 122 123 115 115 103 85 98 94 109 100 135 187 213 215 229 208 130 69 2 338 329 301 273 270 224 202 190 234 219 236 253 258 260 274 289 302 298 298 299 304 297
128 116 114 107 116 131 156 160 153 168 199 216 226 222 213 360 320 225 150 195 222 241 276 288 287 301 288 276 218 225 201 214 237 246 259 271 272 287 264 296 293 310 308
117 145 140 147 169 165 196 209 202 188 197 228 249 265 255 227 229 230 224 212 217 227 241 255 275 277 291 235 249 245 235 235 230 235 263 268 283 294 259 273 293 293 288
187 179 178 183 181 182 201 211 208 201 199 208 225 236 243 245 238 235 228 218 235 237 241 248 248 261 260 250 251 222 227 242 256 270 258 277 276 272 258 283 282 274 277
215 195 192 186 186 189 192 201 219 216 221 207 207 225 230 246 243 230 223 213 228 235 245 249 250 255 256 187 153 190 276 270 259 263 267 273 279 287 289 293 284 282 279
216 217 192 184 185 188 197 199 201 198 216 217 225 222 234 241 247 246 223 224 229 234 243 250 258 261 165 169 163 246 271 261 261 273 284 293 292 290 286 278 273 244 267
207 177 192 182 183 190 195 181 194 208 212 228 231 234 227 230 245 229 210 205 232 273 266 293 305 175 181 219 232 231 236 249 271 272 273 279 282 274 277 268 218 232 264
182 149 158 176 183 176 167 201 212 209 231 251 259 274 270 287 260 240 230 191 125 153 278 298 325 198 244 270 265 247 251 260 281 275 276 270 270 274 268 257 252 257 250
117 148 223 179 178 148 170 217 233 238 232 246 239 251 307 27 39 123 144 204 238 222 233 253 290 288 285 283 283 283 294 286 260 258 259 263 249 245 271 283 276 268 262
167 163 211 199 227 269 239 226 222 242 246 234 220 181 182 207 199 200 221 229 291 247 333 308 276 275 272 273 286 290 268 239 226 233 247 248 267 303 287 289 294 290 284
185 210 226 231 234 236 232 224 221 230 200 202 192 177 180 219 225 187 176 204 198 208 290 279 291 296 294 291 289 251 254 282 298 279 261 280 282 272 289 294 282 296 288
210 226 220 222 243 230 215 245 249 222 193 176 176 174 229 190 165 189 196 214 223 205 42 280 286 272 265 271 260 271 272 277 266 264 276 262 280 277 291 288 296 284 300
197 218 218 248 260 234 205 203 198 273 264 231 210 204 195 185 189 207 223 245 265 151 252 256 250 257 264 270 257 255 250 252 251 287 261 283 279 283 302 310 316 310 313
199 210 202 227 232 233 212 201 184 180 208 227 230 209 213 195 205 216 236 324 289 218 225 239 248 252 260 248 270 257 267 275 304 286 295 281 293 322 332 322 318 321 320
187 212 216 229 223 214 217 218 218 202 212 214 145 179 213 204 214 205 189 211 231 262 252 236 236 242 234 265 268 275 276 282 250 275 279 333 357 330 317 315 317 321 320
191 206 186 193 201 241 244 229 224 218 226 216 190 210 162 132 202 219 218 221 223 237 246 244 268 248 278 282 290 305 329 317 296 296 360 1 334 325 317 319 322 321 319
179 212 211 205 207 228 239 244 232 209 231 244 228 192 180 187 206 213 219 216 219 220 222 225 206 120 347 312 309 272 270 273 312 88 337 359 339 313 311 312 317 316 316
187 232 211 216 227 232 232 235 232 223 237 253 246 204 186 194 204 211 217 211 193 192 178 162 155 169 239 259 271 268 280 312 140 71 9 337 312 306 313 316 314 316 316
187 225 251 236 238 246 243 234 226 224 227 231 231 204 183 206 220 226 222 214 187 177 170 154 164 231 260 264 257 249 193 174 174 140 352 309 310 306 299 308 312 314 319
197 207 235 263 268 269 269 252 242 252 273 289 315 319 189 217 236 249 248 232 202 176 152 155 169 229 259 257 260 147 142 154 144 140 116 298 292 294 295 300 306 310 313
198 210 217 231 245 250 259 5 77 38 42 37 8 360 330 275 187 315 326 284 237 166 175 176 168 239 252 263 149 152 163 161 149 156 324 292 286 293 289 298 304 309 310
199 209 218 231 236 85 71 55 43 35 17 357 346 354 331 302 310 284 184 291 327 12 356 309 255 255 270 87 155 152 152 157 160 215 273 282 287 293 292 296 302 304 307